Location: Newark
(55.7083°N, 13.1992°E)
Time: 03:51:46
(UTC+00:00)

Transit 4A - Pass Details

Date: 24 February 2020
Orbit: 871 x 973 km, 66.8° (Epoch: 04 April)

Event Time Altitude Azimuth Distance (km) Brightness Sun altitude
Exits shadow 02:04:17 33° 355° (N) 1,448 9.1 -34.0°
Drops below altitude 10° 02:08:50 10° 45° (NE) 2,533 11.0 -33.5°
Sets 02:11:35 0° 55° (NE) 3,477 12.0 -33.2°
